Location: C�an Torras
(41.5052°N, 1.9280°E)
Time: 19:06:22
(UTC+00:00)

Cosmos 2263 Rocket - Pass Details

Date: 20 January 2021
Orbit: 825 x 847 km, 71.0° (Epoch: 02 March)

Event Time Altitude Azimuth Distance (km) Brightness Sun altitude
Rises 17:11:52 0° 208° (SSW) 3,394 6.3 -4.0°
Reaches altitude 10° 17:14:19 10° 210° (SSW) 2,462 5.6 -4.4°
Maximum altitude 17:19:58 72° 295° (WNW) 888 2.5 -5.4°
Drops below altitude 10° 17:25:38 10° 20° (NNE) 2,468 4.2 -6.3°
Sets 17:28:06 0° 23° (NNE) 3,404 4.9 -6.8°
